Weather History for Brownsville, TX

Change the Weather History Date:

Sunday, April 13, 2014

  Actual Average Record
Temperature  
Mean Temperature 80 °F 74 °F  
Max Temperature 87 °F 83 °F 95 °F (1983)
Min Temperature 73 °F 65 °F 44 °F (1913)
Degree Days  
Heating Degree Days 0 0  
Month to date heating degree days 0 6  
Since 1 July heating degree days 814 552  
Cooling Degree Days 15 10  
Month to date cooling degree days 127 113  
Year to date cooling degree days 370 428  
Growing Degree Days 30 (Base 50)    
Moisture  
Dew Point 72 °F    
Average Humidity 81    
Maximum Humidity 100    
Minimum Humidity 61    
Precipitation  
Precipitation 0.00 in 0.06 in 0.90 in (1925)
Month to date precipitation T 0.66  
Year to date precipitation 2.22 4.24  
Sea Level Pressure  
Sea Level Pressure 29.77 in    
Wind  
Wind Speed 19 mph (SSE)    
Max Wind Speed 31 mph    
Max Gust Speed 39 mph    
Visibility 10 miles    
Events      
T = Trace of Precipitation, MM = Missing Value Source: NWS Daily Summary

Daily Weather History Graph

Daily Weather History Graph

Search for Another Location

Airport:

Trip Planner

Search our weather history database for the weather conditions in past years. The results will help you decide how hot, cold, wet, or windy it might be!

Date:

Astronomy

Apr. 13, 2014 Rise Set
Actual Time 7:08 AM CDT 7:52 PM CDT
Civil Twilight 6:45 AM CDT 8:15 PM CDT
Nautical Twilight 6:17 AM CDT 8:43 PM CDT
Astronomical Twilight 5:49 AM CDT 9:11 PM CDT
Moon 6:38 PM CDT (4/13) 5:58 AM CDT (4/13)
Length of Visible Light 13h 30m
Length of Day
12h 43m
Waxing Gibbous, 97% of the Moon is Illuminated
Apr 13
Waxing Gibbous
Apr 15
Full
Apr 22
Last Quarter
Apr 29
New
May 6
First Quarter

Hourly Weather History & Observations

Time (CDT) Temp. Heat Index Dew Point Humidity Pressure Visibility Wind Dir Wind Speed Gust Speed Precip Events Conditions
12:00 AM 71.6 °F - 71.6 °F 100% 29.89 in 10.0 mi SSE 9.2 mph - N/A   Overcast
12:44 AM 73.4 °F - 71.6 °F 94% 29.88 in 10.0 mi SSE 9.2 mph - N/A   Overcast
12:53 AM 73.0 °F - 72.0 °F 96% 29.88 in 10.0 mi SSE 11.5 mph - N/A   Overcast
1:53 AM 73.0 °F - 72.0 °F 96% 29.86 in 10.0 mi SSE 9.2 mph - N/A   Overcast
2:53 AM 73.9 °F - 73.0 °F 97% 29.84 in 10.0 mi SSE 12.7 mph - N/A   Overcast
3:53 AM 73.9 °F - 72.0 °F 93% 29.81 in 10.0 mi SSE 13.8 mph - N/A   Overcast
4:20 AM 73.4 °F - 71.6 °F 94% 29.81 in 10.0 mi SSE 10.4 mph - N/A   Overcast
4:24 AM 73.4 °F - 71.6 °F 94% 29.81 in 10.0 mi SSE 11.5 mph - N/A   Overcast
4:38 AM 73.4 °F - 71.6 °F 94% 29.80 in 10.0 mi SSE 12.7 mph - N/A   Overcast
4:53 AM 73.9 °F - 72.0 °F 93% 29.79 in 10.0 mi SSE 15.0 mph 21.9 mph N/A   Overcast
5:36 AM 73.4 °F - 71.6 °F 94% 29.79 in 10.0 mi SSE 13.8 mph - N/A   Overcast
5:46 AM 73.4 °F - 71.6 °F 94% 29.79 in 10.0 mi SSE 13.8 mph - N/A   Overcast
5:53 AM 73.9 °F - 72.0 °F 93% 29.78 in 10.0 mi SSE 15.0 mph - N/A   Overcast
6:53 AM 73.9 °F - 72.0 °F 93% 29.78 in 10.0 mi SSE 18.4 mph 25.3 mph N/A   Overcast
7:53 AM 73.9 °F - 72.0 °F 93% 29.78 in 10.0 mi SSE 20.7 mph 27.6 mph N/A   Overcast
8:53 AM 75.9 °F - 73.0 °F 91% 29.80 in 10.0 mi SSE 18.4 mph 27.6 mph N/A   Overcast
9:53 AM 78.1 °F - 72.0 °F 81% 29.80 in 10.0 mi SSE 23.0 mph 29.9 mph N/A   Overcast
10:11 AM 78.8 °F - 71.6 °F 78% 29.79 in 10.0 mi SSE 29.9 mph 39.1 mph N/A   Overcast
10:41 AM 80.6 °F 84.6 °F 71.6 °F 74% 29.79 in 10.0 mi South 26.5 mph 36.8 mph N/A   Scattered Clouds
10:53 AM 82.9 °F 88.0 °F 72.0 °F 69% 29.79 in 10.0 mi SSE 24.2 mph 33.4 mph N/A   Scattered Clouds
11:16 AM 84.2 °F 89.6 °F 71.6 °F 66% 29.79 in 10.0 mi South 24.2 mph 34.5 mph N/A   Mostly Cloudy
11:30 AM 84.2 °F 89.6 °F 71.6 °F 66% 29.79 in 10.0 mi South 28.8 mph 35.7 mph N/A   Scattered Clouds
11:53 AM 84.0 °F 88.4 °F 70.0 °F 63% 29.79 in 10.0 mi South 28.8 mph 34.5 mph N/A   Mostly Cloudy
12:09 PM 84.2 °F 88.4 °F 69.8 °F 62% 29.79 in 10.0 mi South 27.6 mph 33.4 mph N/A   Mostly Cloudy
12:53 PM 82.9 °F 87.5 °F 71.1 °F 67% 29.78 in 10.0 mi South 25.3 mph 32.2 mph N/A   Mostly Cloudy
1:53 PM 82.9 °F 87.5 °F 71.1 °F 67% 29.76 in 10.0 mi South 25.3 mph 32.2 mph N/A   Overcast
2:53 PM 84.9 °F 90.1 °F 71.1 °F 63% 29.72 in 10.0 mi South 28.8 mph 38.0 mph N/A   Mostly Cloudy
3:01 PM 84.2 °F 89.6 °F 71.6 °F 66% 29.72 in 10.0 mi South 26.5 mph 38.0 mph N/A   Mostly Cloudy
3:32 PM 84.2 °F 89.6 °F 71.6 °F 66% 29.71 in 10.0 mi SSE 24.2 mph 31.1 mph N/A   Mostly Cloudy
3:53 PM 82.9 °F 87.5 °F 71.1 °F 67% 29.70 in 10.0 mi South 24.2 mph 29.9 mph N/A   Mostly Cloudy
4:06 PM 82.4 °F 87.2 °F 71.6 °F 70% 29.70 in 10.0 mi South 25.3 mph 31.1 mph N/A   Scattered Clouds
4:53 PM 82.9 °F 88.0 °F 72.0 °F 69% 29.68 in 10.0 mi South 19.6 mph 26.5 mph N/A   Scattered Clouds
5:53 PM 81.0 °F 85.2 °F 72.0 °F 74% 29.67 in 10.0 mi South 23.0 mph 28.8 mph N/A   Clear
6:53 PM 79.0 °F - 73.0 °F 82% 29.68 in 10.0 mi SSE 19.6 mph - N/A   Partly Cloudy
7:45 PM 77.0 °F - 73.4 °F 89% 29.70 in 10.0 mi SSE 13.8 mph - N/A   Mostly Cloudy
7:53 PM 77.0 °F - 73.0 °F 88% 29.70 in 10.0 mi SSE 13.8 mph - N/A   Mostly Cloudy
8:34 PM 75.2 °F - 73.4 °F 94% 29.71 in 10.0 mi SSE 13.8 mph - N/A   Scattered Clouds
8:53 PM 75.9 °F - 73.0 °F 91% 29.71 in 10.0 mi SE 15.0 mph - N/A   Clear
9:23 PM 75.2 °F - 73.4 °F 94% 29.71 in 10.0 mi SE 12.7 mph - N/A   Mostly Cloudy
9:37 PM 75.2 °F - 73.4 °F 94% 29.72 in 10.0 mi SE 13.8 mph - N/A   Overcast
9:53 PM 75.9 °F - 73.9 °F 94% 29.72 in 10.0 mi SE 13.8 mph - N/A   Overcast
10:03 PM 75.2 °F - 73.4 °F 94% 29.73 in 10.0 mi SE 15.0 mph - N/A   Overcast
10:53 PM 75.9 °F - 73.9 °F 94% 29.73 in 10.0 mi SSE 15.0 mph - N/A   Overcast
11:24 PM 75.2 °F - 73.4 °F 94% 29.74 in 10.0 mi SSE 12.7 mph - N/A   Scattered Clouds
11:53 PM 75.0 °F - 73.0 °F 94% 29.73 in 10.0 mi SSE 15.0 mph - N/A   Mostly Cloudy